Regional Weather Roundup
Issued by NWS

Home | Current Version | Previous Version | Graphics & Text | Print | Product List | Glossary On
Versions: 1 2 3 4 5 6 7 8 9 10 11 12 13 14 15 16 17 18 19 20 21 22 23 24 25 26 27 28 29 30 31 32 33 34 35 36 37 38 39 40 41 42 43 44 45 46 47 48 49 50
000
ASUS43 KBIS 250502
RWRND

NORTH DAKOTA REGIONAL WEATHER ROUNDUP
NATIONAL WEATHER SERVICE BISMARCK ND
1200 AM CDT MON JUL 25 2016

NOTE: "FAIR" INDICATES FEW OR NO CLOUDS BELOW 12,000 FEET WITH NO
SIGNIFICANT WEATHER AND/OR OBSTRUCTIONS TO VISIBILITY.


NDZ001>003-009>011-017-250600-
NORTHWEST NORTH DAKOTA

CITY           SKY/WX    TMP DP  RH WIND       PRES   REMARKS
WILLISTON      CLEAR     67  58  72 N8        29.99S
MINOT          CLEAR     69  61  75 S5        30.00S
MINOT AFB      CLEAR     60  58  91 S2        29.99F
$$

NDZ018>021-031>035-040>046-250600-
SOUTHWEST NORTH DAKOTA

CITY           SKY/WX    TMP DP  RH WIND       PRES   REMARKS
BISMARCK       CLEAR     64  59  83 SE5       30.03F
DICKINSON      CLEAR     60  53  77 S9        30.03S
GARRISON         N/A     64  60  87 CALM      30.02R
HETTINGER ARPT CLEAR     67  50  54 E7        30.07F
$$

NDZ004>008-012>016-024-026-027-054-250600-
NORTHEAST NORTH DAKOTA

CITY           SKY/WX    TMP DP  RH WIND       PRES   REMARKS
GRAND FORKS    CLEAR     65  60  84 W7        29.95R
GRND FRKS AFB  CLEAR     65  60  85 W7        29.96S
DEVILS LAKE    PTCLDY    64  59  83 W6        30.00S
$$

NDZ022-023-025-028>030-036>039-047>053-250600-
SOUTHEAST NORTH DAKOTA

CITY           SKY/WX    TMP DP  RH WIND       PRES   REMARKS
FARGO          CLEAR     66  59  78 W7        29.98S
JAMESTOWN      CLEAR     62  59  90 CALM      30.02S
$$





USA.gov is the U.S. government's official web portal to all federal, state and local government web resources and services.